This demonstration page uses our WeatherBlox Daily Observations layout. Learn more.

Left ArrowRight Arrow

41.86663, -103.66717

Hourly Observations for August 26, 2018

Temp ( °F °C ) Dew Point ( °F °C ) Humidity (%) Winds ( mph kmh ) Pressure ( in mb ) Visibility ( mi km ) Precip ( " mm )
12:53 am 00:53 Clear 68 20 57 13.9 68 68 ESE 3 6 29.76 1008 10 16 0.00 0.00
1:53 am 01:53 Clear 68 20 57 13.9 68 68 NNW 5 7 29.76 1008 10 16 0.00 0.00
2:53 am 02:53 Clear 74 23.3 59 15 60 60 S 9 15 29.76 1008 10 16 0.00 0.03
3:53 am 03:53 Clear 69 20.6 61 16.1 76 76 E 5 7 29.74 1007 10 16 0.00 0.00
4:53 am 04:53 Partly Cloudy 70 21.1 62 16.7 76 76 Calm 29.72 1006 10 16 0.01 0.25
5:53 am 05:53 Clear 63 17.2 61 16.1 93 93 NNE 3 6 29.71 1006 10 16 0.00 0.00
6:53 am 06:53 Sunny 61 16.1 61 16.1 100 100 NW 6 9 29.74 1007 10 16 0.00 0.00
7:53 am 07:53 Sunny 66 18.9 63 17.2 90 90 ESE 8 13 29.73 1007 10 16 0.00 0.00
8:53 am 08:53 Sunny 75 23.9 63 17.2 66 66 NW 5 7 29.73 1007 10 16 0.00 0.00
9:53 am 09:53 Sunny 80 26.7 60 15.6 51 51 WNW 9 15 29.72 1006 10 16 0.00 0.00
10:53 am 10:53 Sunny 87 30.6 57 13.9 36 36 NW 8 13 29.69 1006 10 16 0.00 0.00
11:53 am 11:53 Sunny 92 33.3 54 12.2 28 28 NW 12 19 29.65 1004 10 16 0.00 0.00
12:53 pm 12:53 Sunny 96 35.6 42 5.6 15 15 W 10 17 29.64 1004 10 16 0.00 0.00
1:53 pm 13:53 Sunny 95 35 40 4.4 15 15 W 16 26 29.62 1003 10 16 0.00 0.00
2:53 pm 14:53 Sunny 98 36.7 37 2.8 12 12 W 21 33 29.60 1002 10 16 0.00 0.00
3:53 pm 15:53 Sunny 97 36.1 34 1.1 11 11 WNW 18 30 29.59 1002 10 16 0.00 0.00
4:53 pm 16:53 Sunny 93 33.9 40 4.4 16 16 NW 12 19 29.58 1002 10 16 0.00 0.00
5:53 pm 17:53 Sunny 90 32.2 46 7.8 22 22 NW 6 9 29.60 1002 10 16 0.00 0.00
6:53 pm 18:53 Sunny 86 30 50 10 29 29 S 3 6 29.60 1002 9 14 0.00 0.00
7:53 pm 19:53 Clear 78 25.6 52 11.1 40 40 Calm 29.62 1003 10 16 0.00 0.00
8:53 pm 20:53 Clear 74 23.3 52 11.1 46 46 N 6 9 29.64 1004 10 16 0.00 0.00
9:53 pm 21:53 Clear 74 23.3 52 11.1 46 46 SE 6 9 29.65 1004 10 16 0.00 0.00
10:53 pm 22:53 Mostly Clear 72 22.2 53 11.7 52 52 E 5 7 29.64 1004 10 16 0.00 0.00
11:53 pm 23:53 Mostly Clear 72 22.2 50 10 46 46 undefined N/A 29.63 1003 10 16 0.00 0.00

Powered by AerisWeather